Location: Stull Observatory
(42.2506°N, 77.7903°W)
Time: 09:44:15
(UTC-04:00)

ISS - All Passes

Search period start: 27 May 2017 00:00
Search period end: 06 June 2017 00:00
Orbit: 402 x 408 km, 51.6° (Epoch: 27 May)

Date Brightness Start Highest point End Pass type
(mag) Time Alt. Az. Time Alt. Az. Time Alt. Az.
27 May - 01:11:20 10° NW 01:13:42 18° N 01:16:03 10° ENE visible
27 May - 02:47:31 10° NW 02:50:45 52° NNE 02:53:57 10° ESE visible
27 May - 04:24:34 10° W 04:27:00 19° SW 04:29:26 10° S visible
27 May - 19:30:03 10° SSE 19:31:08 11° SE 19:32:13 10° ESE daylight
27 May - 21:03:52 10° SW 21:07:09 87° NNW 21:10:28 10° NE visible
27 May - 22:41:24 10° WNW 22:44:01 21° NNW 22:46:39 10° NE visible
28 May - 00:19:13 10° NW 00:21:24 16° N 00:23:34 10° NE visible
28 May - 01:55:35 10° NW 01:58:37 33° NNE 02:01:37 10° E visible
28 May - 03:32:05 10° WNW 03:35:07 36° SW 03:38:09 10° SSE visible
28 May - 20:11:58 10° SW 20:15:09 49° SE 20:18:22 10° ENE daylight
28 May - 21:48:52 10° W 21:51:47 28° NNW 21:54:42 10° NE visible
28 May - 23:26:55 10° NW 23:29:04 16° N 23:31:12 10° NE visible
29 May - 01:03:38 10° NW 01:06:24 24° NNE 01:09:09 10° ENE visible
29 May - 02:39:52 10° WNW 02:43:08 70° SW 02:46:23 10° SE visible
29 May - 19:20:24 10° SSW 19:23:12 26° SE 19:26:02 10° ENE daylight
29 May - 20:56:26 10° W 20:59:35 41° NNW 21:02:45 10° NE daylight
29 May - 22:34:27 10° NW 22:36:43 17° N 22:38:59 10° NE visible
30 May - 00:11:38 10° NW 00:14:07 19° NNE 00:16:34 10° ENE visible
30 May - 01:47:49 10° NW 01:51:05 65° NNE 01:54:20 10° ESE visible
30 May - 03:25:12 10° W 03:27:14 15° SW 03:29:16 10° S night (unlit)
30 May - 18:29:28 10° SSE 18:31:20 14° SE 18:33:12 10° E daylight
30 May - 20:04:10 10° WSW 20:07:27 70° NNW 20:10:45 10° NE daylight
30 May - 21:41:52 10° WNW 21:44:23 20° NNW 21:46:55 10° NE visible
30 May - 23:19:32 10° NW 23:21:47 17° N 23:24:01 10° NE visible
31 May - 00:55:49 10° NW 00:58:56 39° NNE 01:02:03 10° E visible
31 May - 02:32:28 10° WNW 02:35:21 28° SW 02:38:12 10° SSE night (unlit)
31 May - 19:12:07 10° SW 19:15:23 63° SE 19:18:38 10° ENE daylight
31 May - 20:49:17 10° WNW 20:52:06 25° NNW 20:54:54 10° NE daylight
31 May - 22:27:17 10° NW 22:29:25 16° N 22:31:33 10° NE visible
01 Jun - 00:03:50 10° NW 00:06:43 27° NNE 00:09:34 10° E visible
01 Jun - 01:40:09 10° WNW 01:43:22 54° SW 01:46:34 10° SE visible
01 Jun - 18:20:22 10° SSW 18:23:22 33° SE 18:26:22 10° ENE daylight
01 Jun - 19:56:46 10° W 19:59:50 35° NNW 20:02:55 10° NE daylight
01 Jun - 21:34:50 10° NW 21:37:02 16° N 21:39:14 10° NE visible
01 Jun - 23:11:49 10° NW 23:14:24 21° NNE 23:16:59 10° ENE visible
02 Jun - 00:48:00 10° NW 00:51:18 80° NNE 00:54:34 10° ESE visible
02 Jun - 02:25:56 10° WSW 02:27:21 12° SW 02:28:45 10° SSW night (unlit)
02 Jun - 17:29:06 10° S 17:31:25 18° SE 17:33:45 10° E daylight
02 Jun - 19:04:23 10° WSW 19:07:38 57° NNW 19:10:54 10° NE daylight
02 Jun - 20:42:14 10° WNW 20:44:39 18° NNW 20:47:04 10° NE daylight
02 Jun - 22:19:44 10° NW 22:22:03 17° N 22:24:22 10° NE visible
02 Jun - 23:55:56 10° NW 23:59:08 46° NNE 00:02:19 10° ESE visible
03 Jun - 01:32:48 10° W 01:35:27 23° SW 01:38:05 10° S visible
03 Jun - 18:12:12 10° SW 18:15:30 81° SE 18:18:48 10° ENE daylight
03 Jun - 19:49:36 10° WNW 19:52:18 23° NNW 19:55:00 10° NE daylight
03 Jun - 21:27:29 10° NW 21:29:39 16° N 21:31:48 10° NE visible
03 Jun - 23:03:55 10° NW 23:06:54 30° NNE 23:09:52 10° E visible
04 Jun - 00:40:20 10° WNW 00:43:28 42° SW 00:46:35 10° SSE visible
04 Jun - 17:20:18 10° SSW 17:23:25 42° SE 17:26:34 10° ENE daylight
04 Jun - 18:57:00 10° W 18:59:59 31° NNW 19:02:58 10° NE daylight
04 Jun - 20:35:04 10° NW 20:37:13 16° N 20:39:23 10° NE daylight
04 Jun - 22:11:53 10° NW 22:14:35 22° NNE 22:17:16 10° ENE visible
04 Jun - 23:48:06 10° WNW 23:51:23 82° SW 23:54:40 10° SE visible
05 Jun - 16:28:47 10° S 16:31:25 22° SE 16:34:04 10° E daylight
05 Jun - 18:04:31 10° WSW 18:07:43 47° NNW 18:10:56 10° NE daylight
05 Jun - 19:42:29 10° NW 19:44:48 18° N 19:47:08 10° NE daylight
05 Jun - 21:19:47 10° NW 21:22:12 18° N 21:24:36 10° ENE visible
05 Jun - 22:55:58 10° NW 22:59:13 56° NNE 23:02:27 10° ESE visible
